Language selection

Features

My Weather Profile Weather Topics  | 

Hecate Strait - southern half: Past 24 Hour Conditions

 

East Dellwood - 46207

04:00 AM PST 19 February 2020Buoy position: 50.88N 129.93W
Disclaimer

This table is a summary of hourly weather conditions for the past 24 hours.
Please note that these observations might not always be representative of weather conditions over their associated marine area.

Date / Time
(PST)
Wind(knots) Wave height(m) Wave period(s) Pressure(kPa) Air tempC) Water tempC)
19 February 2020
4:00 S 17 gust 22 2.4 6.0 102.3 7 8
3:00 SSE 17 gust 22 2.2 6.0 102.3 7 8
2:00 SSE 19 gust 22 2.2 5.0 102.3 7 8
1:00 SSE 17 gust 19 1.9 5.0 102.4 7 8
0:00 SE 17 gust 22 1.7 5.0 102.4 7 8
18 February 2020
23:00 SE 17 gust 23 1.6 5.0 102.4 7 8
22:00 SE 19 gust 22 1.6 4.0 102.4 7 8
21:00 SE 16 gust 22 1.4 12.0 102.5 7 8
20:00 SE 16 gust 19 1.3 11.0 102.5 7 8
19:00 SE 13 gust 17 1.4 11.0 102.6 7 8
18:00 SSE 13 gust 17 1.4 12.0 102.6 7 8
17:00 SE 13 gust 16 1.4 11.0 102.6 7 8
16:00 SE 13 gust 16 1.5 12.0 102.7 7 8
15:00 SE 10 gust 13 1.5 12.0 102.7 7 8
14:00 SE 10 gust 12 1.5 13.0 102.8 7 8
13:00 SE 10 gust 12 1.6 12.0 102.8 7 8
12:00 SE 8 gust 12 1.5 12.0 102.9 7 8
11:00 SE 10 gust 13 1.5 12.0 102.9 7 8
10:00 SE 8 gust 10 1.6 11.0 102.9 7 8
9:00 ESE 6 gust 10 1.7 11.0 102.9 7 8
8:00 ESE 6 gust 12 1.8 10.0 102.9 6 8
7:00 E 6 gust 8 1.9 13.0 102.9 6 8
6:00 E 4 gust 8 2.0 13.0 103.0 7 8
5:00 E 4 gust 8 2.0 10.0 103.0 7 8
4:00 calm 2.1 10.0 103.0 7 8

Zoom-in to make a selection

Map of Pacific - North Coast marine weather areas Middle Nomad - 46004 South Nomad - 46036 Dixon Entrance Central - 46145 South Moresby - 46147 Nanakwa Shoal - 46181 North Hecate Strait - 46183 North Nomad - 46184 South Hecate Strait - 46185 West Sea Otter - 46204 West Dixon Entrance - 46205 East Dellwood - 46207 West Moresby - 46208 Sartine Island Cape St.James Kindakun Rocks Langara Island Masset Municipal Airport Rose Spit Sandspit Airport Bella Bella Airport Bella Coola Airport Bonilla Island Cathedral Point Cumshewa Island Grey Islet Holland Rock Lucy Islands Lightstation Prince Rupert Airport
Legend:
buoy Buoy
land station Land Station

Pacific - North Coast Area

Another Region

What we are doing

Date modified: